Home > Time Zones > World Clock > Weather > Serbia > Niš > Past weeks

Flag for Serbia Weather past 2 weeks in Niš, Serbia

Now
81 °F

Passing clouds.


Feels Like: 81 °F
Forecast: 55 / 95 °F
Wind: 3 mph from Southeast

Location: Nis Airport

Current Time: Aug 28, 2015 at 8:20:45 PM

Latest Report: Aug 28, 2015 at 8:00 PM


Visibility: N/A

Pressure: 30.09 "Hg

Humidity: 42%

Dew point: 55 °F

Location of NišLocation

Historic Weather in Niš — Graph

°F

Niš temperature yesterday

Maximum temperature yesterday: 91 °F (at 2:30 PM)
Minimum temperature yesterday: 59 °F (at 6:30 AM)
Average temperature yesterday: 77 °F

Past Weeks' High & Low Weather Summary

 TemperatureHumidityPressure
High97 °F (Aug 14, 2:00 PM)94% (Aug 16, 10:00 PM)30.15 "Hg (Aug 16, 10:00 PM)
Low52 °F (Aug 24, 6:00 AM)19% (Aug 28, 3:30 PM)29.68 "Hg (Aug 16, 4:00 PM)
Average73 °F62%29.98 "Hg
* Reported Aug 13 7:00 PM — Aug 28 7:00 PM, Niš, Weather by CustomWeather, © 2015

Note: Actual official high and low records may vary slightly from our data, if they occured in-between our weather recording intervals... More about our weather records

Advertising

Niš weather history for previous 24 hours

 ConditionsComfort  
Time TempWeatherWind HumidityBarometerVisibility
7:00 PM
Fri, Aug 28
90 °FSunny.7 mph31%30.07 "Hg10 mi
6:30 PM91 °FPassing clouds.9 mph30%30.07 "HgN/A
6:00 PM93 °FPassing clouds.6 mph24%30.07 "HgN/A
5:30 PM95 °FPassing clouds.5 mph20%30.07 "HgN/A
5:00 PM95 °FSunny.3 mph19%30.07 "Hg10 mi
4:30 PM95 °FPassing clouds.5 mph19%30.07 "HgN/A
4:00 PM95 °FSunny.2 mph19%30.07 "Hg10 mi
3:30 PM95 °FPassing clouds.3 mph19%30.07 "HgN/A
3:00 PM95 °FSunny.3 mph22%30.07 "Hg10 mi
2:30 PM93 °FSunny.2 mph23%30.09 "Hg10 mi
2:00 PM91 °FSunny.2 mph28%30.09 "Hg10 mi
1:30 PM91 °FSunny.2 mph28%30.09 "Hg10 mi
1:00 PM90 °FPassing clouds.6 mph29%30.12 "HgN/A
12:30 PM90 °FSunny.3 mph29%30.12 "Hg10 mi
12:00 PM86 °FSunny.2 mph33%30.12 "Hg10 mi
11:30 AM84 °FSunny.2 mph35%30.15 "Hg10 mi
11:00 AM82 °FPassing clouds.3 mph40%30.15 "HgN/A
10:30 AM79 °FSunny.3 mph48%30.15 "Hg10 mi
10:00 AM77 °FSunny.5 mph51%30.15 "Hg10 mi
9:30 AM73 °FPassing clouds.6 mph53%30.15 "HgN/A
9:00 AM72 °FPassing clouds.6 mph57%30.15 "HgN/A
8:30 AM68 °FPassing clouds.5 mph64%30.15 "HgN/A
8:00 AM66 °FPassing clouds.3 mph68%30.15 "HgN/A
7:30 AM64 °FSunny.6 mph73%30.15 "Hg10 mi
7:00 AM61 °FPassing clouds.5 mph77%30.15 "HgN/A
6:30 AM59 °FPassing clouds.3 mph82%30.12 "HgN/A
6:00 AM59 °FPassing clouds.5 mph82%30.12 "HgN/A
5:00 AM61 °FPassing clouds.3 mph77%30.12 "HgN/A
4:30 AM61 °FPassing clouds.3 mph77%30.12 "HgN/A
4:00 AM63 °FPassing clouds.6 mph73%30.09 "HgN/A
3:30 AM63 °FPassing clouds.6 mph73%30.09 "HgN/A
3:00 AM64 °FPassing clouds.5 mph68%30.09 "HgN/A
2:30 AM64 °FClear.2 mph68%30.09 "Hg10 mi
2:00 AM64 °FPassing clouds.3 mph68%30.09 "HgN/A
1:30 AM70 °FPassing clouds.3 mph53%30.09 "HgN/A
1:00 AM73 °FPassing clouds.3 mph44%30.09 "HgN/A
12:00 AM75 °FClear.8 mph41%30.09 "Hg10 mi
11:30 PM
Thu, Aug 27
75 °FClear.9 mph41%30.09 "Hg10 mi
11:00 PM77 °FClear.9 mph39%30.09 "Hg10 mi
10:30 PM77 °FPassing clouds.3 mph39%30.09 "HgN/A
10:00 PM72 °FClear.3 mph50%30.09 "Hg10 mi
9:30 PM77 °FPassing clouds.5 mph39%30.07 "HgN/A
9:00 PM77 °FPassing clouds.3 mph42%30.07 "HgN/A
8:30 PM79 °FPassing clouds.7 mph37%30.07 "HgN/A
8:00 PM82 °FPassing clouds.6 mph32%30.04 "HgN/A
Weather by CustomWeather, © 2015

See weather overviewHow to use our weather pages